Location: *
(58.4167°N, 22.5000°E)
Time: 05:05:28
(UTC+00:00)

CZ-2C R/B - Pass Details

Date: 22 September 2019
Orbit: 639 x 705 km, 98.4° (Epoch: 18 October)

Event Time Altitude Azimuth Distance (km) Brightness Sun altitude
Rises 18:54:46 0° 15° (NNE) 2,989 7.3 -18.6°
Reaches altitude 10° 18:57:01 10° 11° (N) 2,066 6.5 -18.9°
Maximum altitude 19:01:24 54° 295° (WNW) 784 4.4 -19.3°
Drops below altitude 10° 19:05:43 10° 218° (SW) 2,035 6.2 -19.8°
Sets 19:07:56 0° 214° (SW) 2,939 7.0 -20.0°
